Details From LPPT - Lisboa
To LPMA - Madeira
Flight Number -
Tags decoded
Created
Modified
Stats Distance 521 nm / 965 km
Max Altitude 0 ft / 0 m
Waypoints 2
Social Downloads 1
Likes 0
Share

Download

Looking for another format? Having issues loading an existing format? Contact us
Advertisement - Login to hide

Notes

Requested: LPPT LPMA

Route

LPPT LPMA

ID Type Via Altitude (ft/m) Position (lat/lon) Dist (leg/tot) Name
O LPPT APT - 0 / 0 38.77856 / -9.13515 - / 0 nm Lisboa
O LPMA APT - 0 / 0 32.69770 / -16.77445 521 / 521 nm Madeira

Altitude Profile

Advertisement - Login to hide

Weather


0- 5 10 15 20 25 30 35+ Temperature / °C

Clouds and Precipitation
Forecast for 2021-07-24 06:00 UTC. Updated 5 hours ago

Ground ~20,000 ft ~40,000 ft Winds

LPPT

Details ICAO LPPT (LIS)
Name Lisboa Humberto Delgado
Region Portugal
Timezone Europe/Lisbon (UTC+1.0)
Stats Elevation 374 ft / 114 m (AMSL)
Location 38.778800° -9.135190°
Runways 2
Magnetic Variation 1.915° W

METAR

LPPT 240830Z 32008KT 290V010 9999 SCT020 20/14 Q1017

Decode

TAF

TAF LPPT 240500Z 2406/2512 34007KT 9999 FEW012 BECMG 2408/2411 FEW035 BECMG 2411/2414 34015KT BECMG 2422/2424 34010KT FEW015 BECMG 2500/2503 30007KT FEW008 SCT018 PROB30 TEMPO 2503/2508 5000 -RADZ SCT006 BKN012 BECMG 2510/2512 VRB05KT FEW025

Decode

Departure Runways

ID Width Length Bearing (true/mag) Surface Threshold Overrun Markings Lighting
03 148 ft / 45 m 12,505 ft / 3,812 m 22.65° / 24.56° ASPHALT 302 ft / 92 m 0 ft / 0 m PREC-APP CENTERLINE EDGE THRESHOLD ALSF-II TDZ REIL-OMNI
17 148 ft / 45 m 7,612 ft / 2,320 m 168.14° / 170.05° ASPHALT 0 ft / 0 m 0 ft / 0 m PREC-APP CENTERLINE EDGE THRESHOLD REIL-OMNI
21 148 ft / 45 m 12,505 ft / 3,812 m 202.66° / 204.57° ASPHALT 1,965 ft / 599 m 0 ft / 0 m PREC-APP CENTERLINE EDGE THRESHOLD ALSF-II TDZ REIL-OMNI
35 148 ft / 45 m 7,612 ft / 2,320 m 348.14° / 350.06° ASPHALT 194 ft / 59 m 299 ft / 91 m PREC-APP CENTERLINE EDGE THRESHOLD ALSF-I REIL-OMNI

LPMA

Details ICAO LPMA (FNC)
Name Madeira/Funchal - Cristiano Ronaldo
Region Portugal
Timezone Atlantic/Madeira (UTC+1.0)
Stats Elevation 189 ft / 58 m (AMSL)
Location 32.697900° -16.774400°
Runways 1
Magnetic Variation 4.539° W

METAR

LPMA 240830Z 02014G24KT 340V060 9999 FEW015 23/15 Q1019

Decode

TAF

TAF LPMA 240500Z 2406/2506 01015KT 9999 SCT015 TEMPO 2406/2506 02018G30KT

Decode

Destination Runways

ID Width Length Bearing (true/mag) Surface Threshold Overrun Markings Lighting
05 148 ft / 45 m 9,133 ft / 2,784 m 44.60° / 49.14° ASPHALT 482 ft / 147 m 0 ft / 0 m PREC-APP CENTERLINE EDGE THRESHOLD TDZ REIL-OMNI
23 148 ft / 45 m 9,133 ft / 2,784 m 224.61° / 229.15° ASPHALT 482 ft / 147 m 0 ft / 0 m PREC-APP CENTERLINE EDGE THRESHOLD TDZ REIL-OMNI

Popular Alternatives